EZS1504 LDSP-LSGG

Flight info

Callsign EZS1504
Flight time 1h 23m
Altitude 34000
Route ZDA DCT BAXON DCT SRN DCT OMETO DCT TERSI DCT AOSTA L615 BANKO
Aircraft A320/M-SDE2E3FGHIJ1RWXYZ/LB1

Departure

Time 2026-05-05 11:49
Airport Split Saint Jerome Airport (LDSP)

Arrival

Time 2026-05-05 13:13
Airport Geneva International Airport (LSGG)
Time Latitude Longitude Altitude Speed Heading
2026-05-05 11:38 43.53658 16.29746 68 ft 0 kts 95°
2026-05-05 11:43 43.53661 16.29751 68 ft 1 kts 61°
2026-05-05 11:44 43.53669 16.29750 65 ft 2 kts 350°
2026-05-05 11:44 43.53700 16.29732 63 ft 8 kts 348°
2026-05-05 11:44 43.53757 16.29792 63 ft 11 kts 52°
2026-05-05 11:44 43.53808 16.29885 66 ft 12 kts 52°
2026-05-05 11:45 43.53856 16.29971 65 ft 11 kts 52°
2026-05-05 11:45 43.53904 16.30048 62 ft 12 kts 37°
2026-05-05 11:45 43.53986 16.30089 67 ft 12 kts 16°
2026-05-05 11:45 43.54084 16.30142 69 ft 19 kts 34°
2026-05-05 11:46 43.54157 16.30268 67 ft 18 kts 53°
2026-05-05 11:46 43.54251 16.30437 60 ft 25 kts 52°
2026-05-05 11:46 43.54367 16.30641 56 ft 29 kts 52°
2026-05-05 11:46 43.54481 16.30846 53 ft 23 kts 53°
2026-05-05 11:47 43.54536 16.30949 57 ft 10 kts 58°
2026-05-05 11:47 43.54552 16.31028 62 ft 8 kts 84°
2026-05-05 11:47 43.54576 16.31057 62 ft 5 kts 347°
2026-05-05 11:47 43.54575 16.31020 62 ft 4 kts 240°
2026-05-05 11:48 43.54567 16.31005 53 ft 0 kts 233°
2026-05-05 11:48 43.54560 16.30992 56 ft 8 kts 233°
2026-05-05 11:48 43.54391 16.30690 59 ft 76 kts 232°
2026-05-05 11:49 43.53942 16.29884 74 ft 133 kts 232°
2026-05-05 11:49 43.53330 16.28756 454 ft 150 kts 230°
2026-05-05 11:49 43.52685 16.27613 1176 ft 154 kts 229°
2026-05-05 11:49 43.51968 16.26407 1630 ft 172 kts 223°
2026-05-05 11:50 43.51133 16.25069 1961 ft 196 kts 223°
2026-05-05 11:50 43.50206 16.23579 2316 ft 215 kts 224°
2026-05-05 11:50 43.49193 16.21933 2711 ft 236 kts 225°
2026-05-05 11:50 43.48100 16.20134 3333 ft 250 kts 226°
2026-05-05 11:51 43.46991 16.18282 4200 ft 252 kts 227°
2026-05-05 11:51 43.46147 16.16127 4997 ft 266 kts 253°
2026-05-05 11:51 43.46263 16.13544 5762 ft 282 kts 288°
2026-05-05 11:51 43.47420 16.11334 6574 ft 293 kts 315°
2026-05-05 11:52 43.49005 16.09548 7409 ft 296 kts 320°
2026-05-05 11:52 43.50664 16.07868 8263 ft 297 kts 321°
2026-05-05 11:52 43.52350 16.06214 9101 ft 298 kts 321°
2026-05-05 11:52 43.54038 16.04550 9969 ft 299 kts 321°
2026-05-05 11:53 43.55723 16.02863 10747 ft 301 kts 320°
2026-05-05 11:53 43.57394 16.01076 11281 ft 312 kts 316°
2026-05-05 11:53 43.59103 15.99053 11480 ft 334 kts 315°
2026-05-05 11:53 43.60857 15.96875 11971 ft 344 kts 314°
2026-05-05 11:54 43.62637 15.94635 12664 ft 348 kts 314°
2026-05-05 11:54 43.64434 15.92380 13381 ft 350 kts 314°
2026-05-05 11:54 43.66254 15.90114 14061 ft 353 kts 315°
2026-05-05 11:54 43.68092 15.87841 14687 ft 355 kts 315°
2026-05-05 11:55 43.69941 15.85563 15323 ft 357 kts 315°
2026-05-05 11:55 43.71801 15.83277 15959 ft 359 kts 315°
2026-05-05 11:55 43.73669 15.80980 16588 ft 361 kts 315°
2026-05-05 11:55 43.75570 15.78639 17220 ft 363 kts 315°
2026-05-05 11:56 43.77434 15.76339 17852 ft 364 kts 315°
2026-05-05 11:56 43.79358 15.73964 18451 ft 367 kts 315°
2026-05-05 11:56 43.81268 15.71607 18957 ft 369 kts 315°
2026-05-05 11:56 43.83194 15.69231 19453 ft 372 kts 315°
2026-05-05 11:57 43.85135 15.66831 19930 ft 376 kts 315°
2026-05-05 11:57 43.87093 15.64406 20405 ft 379 kts 315°
2026-05-05 11:57 43.89069 15.61956 20919 ft 383 kts 315°
2026-05-05 11:57 43.91062 15.59478 21428 ft 387 kts 315°
2026-05-05 11:58 43.92408 15.57804 21751 ft 389 kts 315°
2026-05-05 11:58 43.95090 15.54456 22363 ft 393 kts 315°
2026-05-05 11:58 43.97129 15.51917 22806 ft 396 kts 315°
2026-05-05 11:58 43.98494 15.50218 23095 ft 398 kts 315°
2026-05-05 11:59 44.00594 15.47601 23543 ft 402 kts 315°
2026-05-05 11:59 44.02652 15.45030 23904 ft 405 kts 315°
2026-05-05 11:59 44.05462 15.41516 24380 ft 408 kts 315°
2026-05-05 11:59 44.06842 15.39683 24608 ft 408 kts 309°
2026-05-05 12:00 44.08593 15.36583 24965 ft 407 kts 300°
2026-05-05 12:00 44.09919 15.33114 25319 ft 405 kts 290°
2026-05-05 12:00 44.10795 15.29397 25681 ft 405 kts 281°
2026-05-05 12:00 44.11461 15.25584 26023 ft 407 kts 281°
2026-05-05 12:01 44.12131 15.21747 26379 ft 410 kts 281°
2026-05-05 12:01 44.12809 15.17878 26725 ft 412 kts 282°
2026-05-05 12:01 44.13492 15.13998 27047 ft 415 kts 282°
2026-05-05 12:01 44.14182 15.10083 27377 ft 417 kts 282°
2026-05-05 12:02 44.14876 15.06154 27692 ft 420 kts 282°
2026-05-05 12:02 44.15573 15.02197 28005 ft 422 kts 282°
2026-05-05 12:02 44.16270 14.98220 28329 ft 424 kts 282°
2026-05-05 12:02 44.16971 14.94217 28647 ft 426 kts 282°
2026-05-05 12:03 44.17674 14.90190 28965 ft 428 kts 282°
2026-05-05 12:03 44.18375 14.86152 29269 ft 430 kts 282°
2026-05-05 12:03 44.19075 14.82092 29571 ft 432 kts 282°
2026-05-05 12:03 44.19780 14.78001 29868 ft 434 kts 281°
2026-05-05 12:04 44.20487 14.73901 30150 ft 436 kts 281°
2026-05-05 12:04 44.21193 14.69789 30405 ft 437 kts 281°
2026-05-05 12:04 44.21900 14.65657 30687 ft 438 kts 281°
2026-05-05 12:04 44.22604 14.61530 30993 ft 437 kts 282°
2026-05-05 12:05 44.23305 14.57426 31413 ft 434 kts 282°
2026-05-05 12:05 44.24000 14.53345 31846 ft 430 kts 282°
2026-05-05 12:05 44.24694 14.49258 32295 ft 426 kts 282°
2026-05-05 12:05 44.25367 14.45296 32727 ft 423 kts 282°
2026-05-05 12:06 44.26045 14.41317 33158 ft 420 kts 282°
2026-05-05 12:06 44.26713 14.37372 33584 ft 416 kts 282°
2026-05-05 12:06 44.27379 14.33416 34010 ft 413 kts 282°
2026-05-05 12:06 44.28031 14.29506 34361 ft 411 kts 282°
2026-05-05 12:07 44.28675 14.25637 34644 ft 409 kts 282°
2026-05-05 12:07 44.29316 14.21791 34908 ft 409 kts 282°
2026-05-05 12:07 44.29958 14.17923 35155 ft 408 kts 282°
2026-05-05 12:07 44.30597 14.14073 35384 ft 408 kts 282°
2026-05-05 12:08 44.31237 14.10212 35605 ft 407 kts 282°
2026-05-05 12:08 44.31874 14.06363 35828 ft 407 kts 282°
2026-05-05 12:08 44.32510 14.02508 36001 ft 407 kts 282°
2026-05-05 12:08 44.33141 13.98671 36042 ft 405 kts 282°
2026-05-05 12:09 44.34398 13.91028 36038 ft 403 kts 282°
2026-05-05 12:09 44.35646 13.83414 36038 ft 402 kts 282°
2026-05-05 12:10 44.36889 13.75785 36038 ft 402 kts 282°
2026-05-05 12:10 44.38127 13.68177 36033 ft 401 kts 282°
2026-05-05 12:11 44.39360 13.60578 36033 ft 401 kts 281°
2026-05-05 12:11 44.40575 13.52983 36033 ft 400 kts 281°
2026-05-05 12:12 44.41918 13.45436 36031 ft 400 kts 289°
2026-05-05 12:12 44.44091 13.38201 36040 ft 401 kts 291°
2026-05-05 12:13 44.46255 13.31020 36033 ft 400 kts 290°
2026-05-05 12:13 44.48412 13.23830 36030 ft 400 kts 290°
2026-05-05 12:14 44.50566 13.16647 36028 ft 400 kts 290°
2026-05-05 12:14 44.52720 13.09455 36021 ft 400 kts 290°
2026-05-05 12:15 44.54868 13.02254 36022 ft 400 kts 290°
2026-05-05 12:15 44.57004 12.95053 36020 ft 400 kts 290°
2026-05-05 12:16 44.59129 12.87845 36015 ft 400 kts 290°
2026-05-05 12:16 44.61253 12.80631 36013 ft 400 kts 290°
2026-05-05 12:17 44.63374 12.73413 36015 ft 400 kts 290°
2026-05-05 12:17 44.65494 12.66197 36012 ft 400 kts 290°
2026-05-05 12:18 44.67617 12.58975 36010 ft 400 kts 290°
2026-05-05 12:18 44.69727 12.51745 36006 ft 400 kts 290°
2026-05-05 12:19 44.71830 12.44506 36006 ft 400 kts 289°
2026-05-05 12:19 44.73931 12.37262 36004 ft 400 kts 289°
2026-05-05 12:20 44.76048 12.29967 35999 ft 400 kts 289°
2026-05-05 12:20 44.78146 12.22705 36002 ft 400 kts 289°
2026-05-05 12:21 44.80230 12.15443 35996 ft 400 kts 289°
2026-05-05 12:21 44.82307 12.08172 35992 ft 400 kts 289°
2026-05-05 12:22 44.84387 12.00905 35990 ft 400 kts 289°
2026-05-05 12:22 44.86459 11.93628 35983 ft 400 kts 289°
2026-05-05 12:23 44.88530 11.86343 35982 ft 400 kts 289°
2026-05-05 12:23 44.90598 11.79043 35981 ft 401 kts 289°
2026-05-05 12:24 44.92660 11.71738 35986 ft 401 kts 288°
2026-05-05 12:24 44.94719 11.64427 35987 ft 401 kts 288°
2026-05-05 12:25 44.96779 11.57109 35990 ft 401 kts 288°
2026-05-05 12:25 44.98827 11.49774 35994 ft 402 kts 288°
2026-05-05 12:26 45.00876 11.42428 35996 ft 402 kts 288°
2026-05-05 12:26 45.02929 11.35079 36001 ft 402 kts 288°
2026-05-05 12:27 45.04992 11.27669 36006 ft 402 kts 288°
2026-05-05 12:27 45.07030 11.20286 36009 ft 403 kts 288°
2026-05-05 12:28 45.09062 11.12922 36011 ft 403 kts 288°
2026-05-05 12:28 45.10981 11.05946 36012 ft 403 kts 287°
2026-05-05 12:29 45.13009 10.98538 36010 ft 403 kts 287°
2026-05-05 12:29 45.15030 10.91133 36009 ft 403 kts 287°
2026-05-05 12:30 45.17051 10.83715 36010 ft 403 kts 287°
2026-05-05 12:30 45.19066 10.76305 36009 ft 403 kts 287°
2026-05-05 12:31 45.21081 10.68875 36007 ft 403 kts 287°
2026-05-05 12:31 45.23090 10.61440 36000 ft 404 kts 287°
2026-05-05 12:32 45.25090 10.54002 36002 ft 404 kts 287°
2026-05-05 12:32 45.26763 10.47757 36004 ft 404 kts 286°
2026-05-05 12:33 45.28757 10.40299 36003 ft 404 kts 286°
2026-05-05 12:33 45.30752 10.32835 36006 ft 404 kts 286°
2026-05-05 12:34 45.32737 10.25352 35996 ft 405 kts 286°
2026-05-05 12:34 45.34718 10.17859 35994 ft 406 kts 286°
2026-05-05 12:35 45.36710 10.10344 35997 ft 406 kts 286°
2026-05-05 12:35 45.38698 10.02824 35994 ft 406 kts 286°
2026-05-05 12:36 45.40677 9.95288 35992 ft 407 kts 285°
2026-05-05 12:36 45.42650 9.87737 35990 ft 407 kts 285°
2026-05-05 12:37 45.44618 9.80179 36055 ft 407 kts 285°
2026-05-05 12:37 45.46580 9.72622 36087 ft 407 kts 285°
2026-05-05 12:38 45.48545 9.65055 36120 ft 407 kts 285°
2026-05-05 12:38 45.50511 9.57475 36136 ft 408 kts 285°
2026-05-05 12:39 45.52479 9.49835 36141 ft 408 kts 285°
2026-05-05 12:39 45.54431 9.42227 36142 ft 408 kts 285°
2026-05-05 12:40 45.56373 9.34617 36128 ft 408 kts 285°
2026-05-05 12:40 45.57342 9.30811 36002 ft 408 kts 285°
2026-05-05 12:40 45.58309 9.27004 36001 ft 408 kts 284°
2026-05-05 12:41 45.60116 9.19886 36000 ft 409 kts 284°
2026-05-05 12:41 45.62050 9.12259 36001 ft 409 kts 284°
2026-05-05 12:42 45.63981 9.04610 36000 ft 409 kts 284°
2026-05-05 12:42 45.65125 8.96774 36005 ft 401 kts 273°
2026-05-05 12:43 45.65872 8.88870 36003 ft 402 kts 273°
2026-05-05 12:43 45.66629 8.80947 36004 ft 402 kts 273°
2026-05-05 12:44 45.67387 8.73026 36009 ft 402 kts 273°
2026-05-05 12:44 45.68136 8.65096 36011 ft 402 kts 272°
2026-05-05 12:45 45.68875 8.57164 36016 ft 402 kts 272°
2026-05-05 12:45 45.69610 8.49241 36022 ft 403 kts 272°
2026-05-05 12:46 45.70341 8.41303 36028 ft 402 kts 272°
2026-05-05 12:46 45.71075 8.33312 36034 ft 402 kts 272°
2026-05-05 12:47 45.71796 8.25373 36035 ft 402 kts 272°
2026-05-05 12:47 45.72498 8.17493 36030 ft 402 kts 272°
2026-05-05 12:48 45.73199 8.09551 36029 ft 402 kts 271°
2026-05-05 12:48 45.73901 8.01607 36018 ft 402 kts 271°
2026-05-05 12:49 45.74602 7.93670 36024 ft 402 kts 271°
2026-05-05 12:49 45.75300 7.85720 36022 ft 402 kts 271°
2026-05-05 12:50 45.75998 7.77703 36002 ft 404 kts 271°
2026-05-05 12:50 45.76688 7.69715 35996 ft 405 kts 271°
2026-05-05 12:51 45.77373 7.61697 36007 ft 406 kts 271°
2026-05-05 12:51 45.78044 7.53723 36010 ft 407 kts 271°
2026-05-05 12:52 45.78713 7.45670 36008 ft 407 kts 271°
2026-05-05 12:52 45.79382 7.37621 36015 ft 407 kts 271°
2026-05-05 12:53 45.80055 7.29510 36015 ft 408 kts 271°
2026-05-05 12:53 45.80721 7.21430 36003 ft 408 kts 271°
2026-05-05 12:54 45.81705 7.09287 35993 ft 411 kts 273°
2026-05-05 12:54 45.82436 7.05286 35984 ft 420 kts 286°
2026-05-05 12:55 45.83846 7.01566 35977 ft 430 kts 298°
2026-05-05 12:55 45.87248 6.94492 35963 ft 432 kts 298°
2026-05-05 12:55 45.88949 6.90936 35713 ft 427 kts 298°
2026-05-05 12:56 45.90627 6.87422 34970 ft 422 kts 297°
2026-05-05 12:56 45.92268 6.83975 34268 ft 415 kts 297°
2026-05-05 12:56 45.93880 6.80577 33513 ft 409 kts 297°
2026-05-05 12:56 45.95471 6.77218 32710 ft 403 kts 297°
2026-05-05 12:57 45.97029 6.73907 31971 ft 397 kts 297°
2026-05-05 12:57 45.98554 6.70632 31219 ft 391 kts 297°
2026-05-05 12:57 46.00048 6.67401 30504 ft 385 kts 297°
2026-05-05 12:57 46.01519 6.64206 29774 ft 381 kts 297°
2026-05-05 12:58 46.02980 6.61030 28702 ft 382 kts 297°
2026-05-05 12:58 46.03971 6.58869 27957 ft 383 kts 298°
2026-05-05 12:58 46.05704 6.55100 26853 ft 381 kts 298°
2026-05-05 12:58 46.07179 6.51942 26006 ft 379 kts 299°
2026-05-05 12:59 46.08660 6.48809 25176 ft 377 kts 300°
2026-05-05 12:59 46.10138 6.45708 24405 ft 375 kts 300°
2026-05-05 12:59 46.11628 6.42578 23643 ft 373 kts 300°
2026-05-05 13:00 46.14514 6.36477 21971 ft 366 kts 300°
2026-05-05 13:00 46.15962 6.33486 21239 ft 362 kts 305°
2026-05-05 13:01 46.22806 6.30588 19233 ft 368 kts 22°
2026-05-05 13:01 46.24920 6.32596 18539 ft 364 kts 43°
2026-05-05 13:01 46.26736 6.35140 17758 ft 364 kts 47°
2026-05-05 13:01 46.27914 6.36929 17261 ft 362 kts 48°
2026-05-05 13:02 46.30154 6.40455 16336 ft 358 kts 49°
2026-05-05 13:02 46.31288 6.42240 15889 ft 356 kts 48°
2026-05-05 13:02 46.32970 6.44845 15240 ft 353 kts 47°
2026-05-05 13:02 46.34656 6.47401 14621 ft 349 kts 47°
2026-05-05 13:03 46.36347 6.49915 14001 ft 347 kts 46°
2026-05-05 13:03 46.38014 6.52385 13575 ft 338 kts 47°
2026-05-05 13:03 46.39636 6.54804 13030 ft 332 kts 47°
2026-05-05 13:03 46.41232 6.57201 12457 ft 328 kts 47°
2026-05-05 13:04 46.42930 6.59354 11885 ft 323 kts 29°
2026-05-05 13:04 46.45013 6.60424 11330 ft 315 kts
2026-05-05 13:04 46.47146 6.60177 10760 ft 304 kts 338°
2026-05-05 13:04 46.48930 6.58712 10193 ft 291 kts 311°
2026-05-05 13:05 46.50035 6.56368 9600 ft 277 kts 284°
2026-05-05 13:05 46.50262 6.53685 8952 ft 265 kts 259°
2026-05-05 13:05 46.49824 6.51109 8253 ft 263 kts 249°
2026-05-05 13:05 46.49159 6.48656 7580 ft 259 kts 236°
2026-05-05 13:06 46.47997 6.46683 7105 ft 258 kts 224°
2026-05-05 13:06 46.46771 6.44857 7010 ft 245 kts 225°
2026-05-05 13:06 46.45608 6.43119 6999 ft 239 kts 224°
2026-05-05 13:06 46.44469 6.41423 6790 ft 229 kts 224°
2026-05-05 13:07 46.43378 6.39802 6519 ft 219 kts 224°
2026-05-05 13:07 46.42335 6.38254 6248 ft 211 kts 224°
2026-05-05 13:07 46.41311 6.36735 5967 ft 206 kts 224°
2026-05-05 13:07 46.40305 6.35244 5690 ft 209 kts 224°
2026-05-05 13:08 46.39280 6.33727 5393 ft 211 kts 224°
2026-05-05 13:08 46.38256 6.32209 5116 ft 210 kts 224°
2026-05-05 13:08 46.37234 6.30697 4844 ft 208 kts 224°
2026-05-05 13:08 46.36243 6.29229 4563 ft 200 kts 224°
2026-05-05 13:09 46.35289 6.27818 4299 ft 192 kts 224°
2026-05-05 13:09 46.34380 6.26475 4053 ft 183 kts 224°
2026-05-05 13:09 46.33499 6.25174 3808 ft 178 kts 224°
2026-05-05 13:09 46.32638 6.23903 3567 ft 176 kts 224°
2026-05-05 13:10 46.31780 6.22637 3331 ft 176 kts 224°
2026-05-05 13:10 46.30934 6.21389 3099 ft 169 kts 224°
2026-05-05 13:10 46.30140 6.20217 2872 ft 159 kts 224°
2026-05-05 13:10 46.29400 6.19127 2664 ft 149 kts 225°
2026-05-05 13:11 46.28691 6.18083 2441 ft 144 kts 224°
2026-05-05 13:11 46.27987 6.17047 2234 ft 143 kts 226°
2026-05-05 13:11 46.27291 6.16023 2040 ft 143 kts 224°
2026-05-05 13:11 46.26599 6.15004 1861 ft 142 kts 224°
2026-05-05 13:12 46.25911 6.13986 1674 ft 142 kts 224°
2026-05-05 13:12 46.25214 6.12974 1468 ft 141 kts 225°
2026-05-05 13:12 46.24547 6.11989 1374 ft 126 kts 225°
2026-05-05 13:12 46.24058 6.11266 1376 ft 79 kts 225°
2026-05-05 13:13 46.23809 6.10902 1380 ft 27 kts 225°
2026-05-05 13:13 46.23665 6.10760 1381 ft 21 kts 202°
2026-05-05 13:13 46.23529 6.10701 1387 ft 19 kts 194°
2026-05-05 13:13 46.23410 6.10644 1387 ft 16 kts 209°
2026-05-05 13:14 46.23329 6.10542 1398 ft 11 kts 225°
2026-05-05 13:14 46.23274 6.10532 1398 ft 9 kts 138°
2026-05-05 13:14 46.23228 6.10596 1398 ft 10 kts 135°
2026-05-05 13:14 46.23175 6.10655 1395 ft 8 kts 176°
2026-05-05 13:15 46.23132 6.10610 1406 ft 7 kts 226°
2026-05-05 13:15 46.23095 6.10568 1404 ft 5 kts 188°
2026-05-05 13:15 46.23070 6.10589 1404 ft 3 kts 139°
2026-05-05 13:15 46.23058 6.10607 1404 ft 1 kts 135°
2026-05-05 13:16 46.23056 6.10609 1405 ft 0 kts 135°